Weather History for KNKX - March, 2014

Change the Weather History Date:

Wednesday, March 26, 2014

  Actual Average Record
Temperature  
Mean Temperature 60 °F -  
Max Temperature 64 °F 63 °F 89 °F (2015)
Min Temperature 55 °F 47 °F 44 °F (2005)
Degree Days  
Heating Degree Days 6    
Growing Degree Days 10 (Base 50)    
Moisture  
Dew Point 49 °F    
Average Humidity 69    
Maximum Humidity 89    
Minimum Humidity 52    
Precipitation  
Precipitation 0.04 in - - ()
Sea Level Pressure  
Sea Level Pressure 29.96 in    
Wind  
Wind Speed 10 mph (West)    
Max Wind Speed 17 mph    
Max Gust Speed 22 mph    
Visibility 10 miles    
Events Rain    
Averages and records for this station are not official NWS values.
T = Trace of Precipitation, MM = Missing Value Source: NWS Daily Summary

Daily Weather History Graph

Daily Weather History Graph

Search for Another Location

Airport or City:

Trip Planner

Search our weather history database for the weather conditions in past years. The results will help you decide how hot, cold, wet, or windy it might be!

Date:

Astronomy

Mar. 26, 2014 Rise Set
Actual Time 6:44 AM PDT 7:04 PM PDT
Civil Twilight 6:19 AM PDT 7:29 PM PDT
Nautical Twilight 5:50 AM PDT 7:58 PM PDT
Astronomical Twilight 5:21 AM PDT 8:27 PM PDT
Moon 3:42 AM PDT (3/26) 3:00 PM PDT (3/26)
Length of Visible Light 13h 09m
Length of Day
12h 20m
Waning Crescent, 21% of the Moon is Illuminated
Mar 26
Waning Crescent
Mar 30
New
Apr 7
First Quarter
Apr 15
Full
Apr 22
Last Quarter

Hourly Weather History & Observations

Time (PDT) Temp. Dew Point Humidity Pressure Visibility Wind Dir Wind Speed Gust Speed Precip Events Conditions
12:55 AM 57.0 °F 50.0 °F 77% 29.94 in 10.0 mi WSW 6.9 mph - N/A   Mostly Cloudy
1:55 AM 55.9 °F 48.9 °F 77% 29.94 in 10.0 mi WSW 6.9 mph - N/A   Mostly Cloudy
2:55 AM 55.9 °F 48.9 °F 77% 29.92 in 10.0 mi Calm Calm - N/A   Mostly Cloudy
3:55 AM 57.0 °F 48.0 °F 72% 29.91 in 10.0 mi SW 6.9 mph - N/A   Mostly Cloudy
4:55 AM 55.0 °F 52.0 °F 89% 29.91 in 7.0 mi SW 6.9 mph - 0.00 in   Mostly Cloudy
5:55 AM 55.0 °F 52.0 °F 89% 29.91 in 10.0 mi West 10.4 mph - 0.02 in   Mostly Cloudy
6:55 AM 55.9 °F 50.0 °F 80% 29.93 in 10.0 mi West 11.5 mph - N/A   Mostly Cloudy
7:55 AM 57.9 °F 48.9 °F 72% 29.96 in 10.0 mi West 10.4 mph - N/A   Mostly Cloudy
8:55 AM 59.0 °F 48.9 °F 69% 29.97 in 10.0 mi West 13.8 mph - N/A   Mostly Cloudy
9:55 AM 62.1 °F 48.0 °F 60% 29.99 in 10.0 mi WNW 11.5 mph - N/A   Mostly Cloudy
10:55 AM 61.0 °F 46.9 °F 60% 29.99 in 10.0 mi West 13.8 mph 19.6 mph N/A   Mostly Cloudy
11:55 AM 63.0 °F 46.9 °F 56% 30.00 in 10.0 mi WSW 16.1 mph - N/A   Mostly Cloudy
12:55 PM 63.0 °F 46.9 °F 56% 29.99 in 10.0 mi West 12.7 mph 18.4 mph 0.00 in Rain Light Rain
1:06 PM 63.0 °F 48.0 °F 58% 30.00 in 10.0 mi West 13.8 mph - 0.00 in   Mostly Cloudy
1:55 PM 64.0 °F 46.0 °F 52% 29.98 in 10.0 mi West 13.8 mph - 0.00 in   Mostly Cloudy
2:55 PM 60.1 °F 51.1 °F 72% 29.97 in 6.0 mi West 15.0 mph 21.9 mph 0.00 in   Haze
3:55 PM 62.1 °F 48.0 °F 60% 29.96 in 10.0 mi WNW 16.1 mph 20.7 mph N/A   Mostly Cloudy
4:55 PM 63.0 °F 48.0 °F 58% 29.96 in 10.0 mi West 16.1 mph - N/A   Mostly Cloudy
5:55 PM 60.1 °F 46.9 °F 62% 29.96 in 10.0 mi West 10.4 mph - N/A   Mostly Cloudy
6:55 PM 60.1 °F 46.9 °F 62% 29.97 in 10.0 mi West 17.3 mph - 0.00 in   Mostly Cloudy
7:55 PM 57.0 °F 46.9 °F 69% 29.97 in 10.0 mi West 11.5 mph - N/A   Mostly Cloudy
8:55 PM 57.0 °F 48.0 °F 72% 29.99 in 10.0 mi West 10.4 mph - N/A   Scattered Clouds
9:55 PM 57.9 °F 48.9 °F 72% 29.99 in 10.0 mi West 9.2 mph - 0.00 in   Light Drizzle
10:55 PM 57.9 °F 48.9 °F 72% 29.99 in 10.0 mi West 10.4 mph - 0.00 in   Mostly Cloudy
11:55 PM 55.9 °F 51.1 °F 84% 29.99 in 5.0 mi West 9.2 mph - 0.02 in   Mostly Cloudy